Satellite: OKEAN-4 Catalog number: 23317 Epoch time: 10027.75686487 Element set: 0140 Inclination: 082.5421 deg RA of node: 124.9328 deg Eccentricity: 0.0021816 Arg of perigee: 349.4218 deg Mean anomaly: 010.6556 deg Mean motion: 14.82759997 rev/day Decay rate: 9.6e-07 rev/day^2 Epoch rev: 82564 Checksum: 321
Satellite: NOAA-14 Catalog number: 23455 Epoch time: 10028.58028075 Element set: 925 Inclination: 098.8896 deg RA of node: 110.2455 deg Eccentricity: 0.0008584 Arg of perigee: 272.5967 deg Mean anomaly: 087.4221 deg Mean motion: 14.13777486 rev/day Decay rate: -7.0e-08 rev/day^2 Epoch rev: 77777 Checksum: 342
Satellite: NOAA-15 Catalog number: 25338 Epoch time: 10028.54808489 Element set: 248 Inclination: 098.6067 deg RA of node: 018.0657 deg Eccentricity: 0.0011417 Arg of perigee: 119.1736 deg Mean anomaly: 241.0584 deg Mean motion: 14.24804476 rev/day Decay rate: 8.8e-07 rev/day^2 Epoch rev: 60886 Checksum: 322
Satellite: RESURS Catalog number: 25394 Epoch time: 10028.54004980 Element set: 417 Inclination: 098.3170 deg RA of node: 054.1507 deg Eccentricity: 0.0000627 Arg of perigee: 292.5205 deg Mean anomaly: 067.5920 deg Mean motion: 14.24192091 rev/day Decay rate: -4.8e-07 rev/day^2 Epoch rev: 60047 Checksum: 268
Satellite: FENGYUN1 Catalog number: 25730 Epoch time: 10027.83516200 Element set: 0961 Inclination: 098.7749 deg RA of node: 356.5229 deg Eccentricity: 0.0023931 Arg of perigee: 302.3262 deg Mean anomaly: 057.5599 deg Mean motion: 14.08166726 rev/day Decay rate: -2.01e-06 rev/day^2 Epoch rev: 55193 Checksum: 298
Satellite: OKEAN-0 Catalog number: 25860 Epoch time: 10027.79336215 Element set: 898 Inclination: 097.8147 deg RA of node: 005.4032 deg Eccentricity: 0.0001249 Arg of perigee: 106.0037 deg Mean anomaly: 254.1309 deg Mean motion: 14.73609854 rev/day Decay rate: 6.0e-07 rev/day^2 Epoch rev: 56622 Checksum: 284
Satellite: NOAA-16 Catalog number: 26536 Epoch time: 10028.54392616 Element set: 725 Inclination: 099.1780 deg RA of node: 042.6763 deg Eccentricity: 0.0010680 Arg of perigee: 013.5607 deg Mean anomaly: 346.5851 deg Mean motion: 14.12543212 rev/day Decay rate: -2.57e-06 rev/day^2 Epoch rev: 48211 Checksum: 287
Satellite: NOAA-17 Catalog number: 27453 Epoch time: 10028.39442257 Element set: 732 Inclination: 098.4536 deg RA of node: 084.3374 deg Eccentricity: 0.0011724 Arg of perigee: 181.7136 deg Mean anomaly: 178.4013 deg Mean motion: 14.24126713 rev/day Decay rate: 2.34e-06 rev/day^2 Epoch rev: 39480 Checksum: 292
Satellite: NOAA-18 Catalog number: 28654 Epoch time: 10028.42685066 Element set: 214 Inclination: 098.9344 deg RA of node: 335.2073 deg Eccentricity: 0.0015239 Arg of perigee: 087.3556 deg Mean anomaly: 272.9349 deg Mean motion: 14.11320977 rev/day Decay rate: -1.57e-06 rev/day^2 Epoch rev: 24172 Checksum: 314
Satellite: NOAA-19 Catalog number: 33591 Epoch time: 10028.45536404 Element set: 421 Inclination: 098.7743 deg RA of node: 333.6518 deg Eccentricity: 0.0013800 Arg of perigee: 328.4631 deg Mean anomaly: 031.5693 deg Mean motion: 14.11022003 rev/day Decay rate: 2.02e-06 rev/day^2 Epoch rev: 5020 Checksum: 248
/EX SB KEPS @ AMSAT $ORB10028.M Orbital Elements 10028.MISC
HR AMSAT ORBITAL ELEMENTS FOR MANNED AND MISCELLANEOUS SATELLITES FROM WA5QGD FORT WORTH,TX January 28, 2010 Send Subscribe/unsubscribe to KEPS at http://www.amsat.org/mailman/listinfo/keps BID: ORB10028.M TO ALL RADIO AMATEURS BT
Satellite: HUBBLE Catalog number: 20580 Epoch time: 10028.21046764 Element set: 510 Inclination: 028.4700 deg RA of node: 073.5965 deg Eccentricity: 0.0003596 Arg of perigee: 151.8346 deg Mean anomaly: 208.2442 deg Mean motion: 15.00884921 rev/day Decay rate: 4.21e-06 rev/day^2 Epoch rev: 88369 Checksum: 279
Satellite: ISS Catalog number: 25544 Epoch time: 10028.85115464 Element set: 465 Inclination: 051.6433 deg RA of node: 226.2042 deg Eccentricity: 0.0010963 Arg of perigee: 254.1893 deg Mean anomaly: 190.1202 deg Mean motion: 15.75468411 rev/day Decay rate: 1.3966e-04 rev/day^2 Epoch rev: 64152 Checksum: 278
Satellite: CO-58 Catalog number: 28895 Epoch time: 10027.74852418 Element set: 0499 Inclination: 098.0346 deg RA of node: 276.7189 deg Eccentricity: 0.0018230 Arg of perigee: 008.2708 deg Mean anomaly: 351.8815 deg Mean motion: 14.59837824 rev/day Decay rate: -8.4e-07 rev/day^2 Epoch rev: 22649 Checksum: 354
Satellite: FALCON Catalog number: 30776 Epoch time: 10027.77379882 Element set: 0764 Inclination: 035.4319 deg RA of node: 176.6292 deg Eccentricity: 0.0001644 Arg of perigee: 002.7907 deg Mean anomaly: 357.2818 deg Mean motion: 15.03437469 rev/day Decay rate: 6.25e-06 rev/day^2 Epoch rev: 15891 Checksum: 321
Satellite: MAST Catalog number: 31126 Epoch time: 10026.62421311 Element set: 0787 Inclination: 097.9580 deg RA of node: 075.8170 deg Eccentricity: 0.0094117 Arg of perigee: 306.6537 deg Mean anomaly: 052.6030 deg Mean motion: 14.53547979 rev/day Decay rate: -5.0e-07 rev/day^2 Epoch rev: 14749 Checksum: 293
Satellite: CAPE1 Catalog number: 31130 Epoch time: 10027.64064426 Element set: 800 Inclination: 097.9585 deg RA of node: 074.4787 deg Eccentricity: 0.0102178 Arg of perigee: 310.6457 deg Mean anomaly: 048.5888 deg Mean motion: 14.52126380 rev/day Decay rate: -2.62e-06 rev/day^2 Epoch rev: 14726 Checksum: 297
Satellite: COMPASS Catalog number: 32787 Epoch time: 10028.32264326 Element set: 581 Inclination: 097.9136 deg RA of node: 094.9010 deg Eccentricity: 0.0016262 Arg of perigee: 024.0090 deg Mean anomaly: 336.1873 deg Mean motion: 14.81742382 rev/day Decay rate: -5.6e-07 rev/day^2 Epoch rev: 9478 Checksum: 291
Satellite: AAUSAT2 Catalog number: 32788 Epoch time: 10028.67640469 Element set: 575 Inclination: 097.9147 deg RA of node: 095.3511 deg Eccentricity: 0.0015624 Arg of perigee: 025.4964 deg Mean anomaly: 334.7088 deg Mean motion: 14.81877792 rev/day Decay rate: 5.28e-06 rev/day^2 Epoch rev: 9484 Checksum: 345
Satellite: DO-64 Catalog number: 32789 Epoch time: 10027.81722040 Element set: 0593 Inclination: 097.9190 deg RA of node: 094.8300 deg Eccentricity: 0.0016064 Arg of perigee: 025.1606 deg Mean anomaly: 335.0387 deg Mean motion: 14.81937803 rev/day Decay rate: 7.59e-06 rev/day^2 Epoch rev: 09471 Checksum: 311
Satellite: CO-66 Catalog number: 32791 Epoch time: 10028.66298363 Element set: 571 Inclination: 097.9144 deg RA of node: 095.2650 deg Eccentricity: 0.0016801 Arg of perigee: 021.3098 deg Mean anomaly: 338.8818 deg Mean motion: 14.81550452 rev/day Decay rate: -9.9e-07 rev/day^2 Epoch rev: 9479 Checksum: 334
Satellite: RS-30 Catalog number: 32953 Epoch time: 10027.67522514 Element set: 0512 Inclination: 082.5035 deg RA of node: 117.0615 deg Eccentricity: 0.0019626 Arg of perigee: 051.9282 deg Mean anomaly: 308.3564 deg Mean motion: 12.43003112 rev/day Decay rate: 1.0e-07 rev/day^2 Epoch rev: 07628 Checksum: 251
Satellite: TACSAT-3 Catalog number: 35001 Epoch time: 10027.93821503 Element set: 0207 Inclination: 040.4568 deg RA of node: 335.5852 deg Eccentricity: 0.0022608 Arg of perigee: 031.4754 deg Mean anomaly: 328.7383 deg Mean motion: 15.40117349 rev/day Decay rate: 4.787e-05 rev/day^2 Epoch rev: 03899 Checksum: 295
Satellite: PHARMSAT Catalog number: 35002 Epoch time: 10028.91849546 Element set: 193 Inclination: 040.4703 deg RA of node: 328.2922 deg Eccentricity: 0.0025345 Arg of perigee: 043.7333 deg Mean anomaly: 316.5444 deg Mean motion: 15.40795409 rev/day Decay rate: 3.971e-05 rev/day^2 Epoch rev: 3915 Checksum: 285
Satellite: HAWKSAT1 Catalog number: 35003 Epoch time: 10027.93942732 Element set: 0202 Inclination: 040.4619 deg RA of node: 332.0787 deg Eccentricity: 0.0024396 Arg of perigee: 042.6117 deg Mean anomaly: 317.6563 deg Mean motion: 15.42306118 rev/day Decay rate: 8.147e-05 rev/day^2 Epoch rev: 03903 Checksum: 269
Satellite: CP6 Catalog number: 35004 Epoch time: 10027.92362564 Element set: 0193 Inclination: 040.4625 deg RA of node: 331.9701 deg Eccentricity: 0.0024021 Arg of perigee: 042.9026 deg Mean anomaly: 317.3626 deg Mean motion: 15.42607149 rev/day Decay rate: 9.616e-05 rev/day^2 Epoch rev: 03902 Checksum: 266
Satellite: AEROCUB3 Catalog number: 35005 Epoch time: 10028.20880361 Element set: 201 Inclination: 040.4729 deg RA of node: 330.8899 deg Eccentricity: 0.0022673 Arg of perigee: 042.2065 deg Mean anomaly: 318.0499 deg Mean motion: 15.42973391 rev/day Decay rate: 1.7477e-04 rev/day^2 Epoch rev: 3906 Checksum: 292
Satellite: DRAGNSAT Catalog number: 35690 Epoch time: 10028.77268253 Element set: 214 Inclination: 051.6343 deg RA of node: 211.2163 deg Eccentricity: 0.0001767 Arg of perigee: 118.6834 deg Mean anomaly: 241.4356 deg Mean motion: 15.96390698 rev/day Decay rate: 8.8953e-04 rev/day^2 Epoch rev: 2893 Checksum: 314
Satellite: POLLUX Catalog number: 35693 Epoch time: 10028.52202965 Element set: 202 Inclination: 051.6332 deg RA of node: 214.0884 deg Eccentricity: 0.0000484 Arg of perigee: 335.4735 deg Mean anomaly: 024.6776 deg Mean motion: 15.93806409 rev/day Decay rate: 7.5089e-04 rev/day^2 Epoch rev: 2884 Checksum: 300
Satellite: CASTOR Catalog number: 35694 Epoch time: 10028.52153948 Element set: 171 Inclination: 051.6366 deg RA of node: 217.9539 deg Eccentricity: 0.0002563 Arg of perigee: 018.7269 deg Mean anomaly: 341.4362 deg Mean motion: 15.86114843 rev/day Decay rate: 2.4904e-04 rev/day^2 Epoch rev: 2879 Checksum: 312
Satellite: METEOR-M Catalog number: 35865 Epoch time: 10028.65757868 Element set: 113 Inclination: 098.7796 deg RA of node: 083.3242 deg Eccentricity: 0.0003136 Arg of perigee: 054.2388 deg Mean anomaly: 305.9035 deg Mean motion: 14.21828546 rev/day Decay rate: 1.76e-06 rev/day^2 Epoch rev: 1889 Checksum: 322
